Location: Hochstatterhof
(48.7256°N, 10.3487°E)
Time: 01:50:54
(UTC+00:00)

COBE Rocket - Pass Details

Date: 26 September 2023
Orbit: 678 x 778 km, 97.1° (Epoch: 04 December)

Event Time Altitude Azimuth Distance (km) Brightness Sun altitude
Rises 04:06:26 0° 6° (N) 3,074 7.4 -11.3°
Reaches altitude 10° 04:08:45 10° 359° (N) 2,164 6.5 -10.9°
Maximum altitude 04:13:11 41° 291° (WNW) 1,021 4.3 -10.2°
Drops below altitude 10° 04:17:42 10° 221° (SW) 2,203 5.9 -9.5°
Enters shadow 04:20:04 - 215° (SW) 3,129 6.8 -9.1°
